Preview of NWS' New Version of Forecast
This preview is not operational and should not be used for support decisions.

Regional Weather Roundup (RWR)

Issued by National Weather Service (NWS)

                            
000
ASUS44 KMEG 161510
RWRTN 
TENNESSEE HOURLY STATE WEATHER ROUNDUP
NATIONAL WEATHER SERVICE MEMPHIS TN
1000 AM CDT SUN JUN 16 2019

TNZ002-004-019-021-049-052-054-088>092-161600-
WEST TENNESSEE
  
CITY           SKY/WX    TMP DP  RH WIND       PRES   REMARKS
MEMPHIS INTL   CLOUDY    81  74  79 SW9       29.95F                  
NWS MEMPHIS      N/A     82 N/A N/A MISG        N/A                   
JACKSON        PTSUNNY   82  74  76 SW13G20   29.95F                  
DYERSBURG      CLOUDY    83  74  74 SW9       29.92F                  
SOMERVILLE     MOSUNNY   82  73  74 SW10G20   29.94F                  
COVINGTON      PTSUNNY   82  73  74 SW17      29.92F                  
UNION CITY     PTSUNNY   82  73  74 SW12G17   29.89S                  
BOLIVAR        CLOUDY    79  73  83 S7G13     29.96F                  
PARIS          PTSUNNY   82  73  74 SW15G21   29.92F                  
HUNTINGDON     CLOUDY    82  73  74 SW10      29.93F                  
LEXINGTON      CLOUDY    81  72  74 SW12G20   29.96F                  
SELMER         CLOUDY    81  73  78 SW9       29.97F                  
SAVANNAH       PTSUNNY   84  73  70 SW13G18   29.98F HX  91           
$$

TNZ008-025-027-028-033-062-065-066-161600-
NORTH MIDDLE TENNESSEE
  
CITY           SKY/WX    TMP DP  RH WIND       PRES   REMARKS
NASHVILLE      PTSUNNY   84  70  62 SW12      29.97F                  
DICKSON        PTSUNNY   81  72  74 SW12G20   29.96F                  
PORTLAND       MOSUNNY   82  72  69 SW15      29.95F                  
CLARKSVILLE    FAIR      84  72  67 SW14G24   29.91F                  
LEBANON        SUNNY     82  72  69 SW13G22   29.95F                  
SMYRNA         FAIR      83  73  72 SW12      29.99F                  
MURFREESBORO   MOSUNNY   82  72  69 SW15      29.98F                  
COOKEVILLE     MOSUNNY   82  70  65 SW10G17   30.02F                  
LIVINGSTON     MOSUNNY   79  68  69 SW10G20   30.01F                  
CROSSVILLE     PTSUNNY   74  67  78 W9        30.09F                  
ROCKWOOD       SUNNY     79  68  69 S8G16     30.07F                  
$$

TNZ061-075-076-078-094-096-097-161600-
SOUTH MIDDLE TENNESSEE
  
CITY           SKY/WX    TMP DP  RH WIND       PRES   REMARKS
LAWRENCEBURG   PTSUNNY   81  72  74 VRB7G14   30.02F                  
LEWISBURG      PTSUNNY   81  72  74 S13       30.00F                  
FAYETTEVILLE   PTSUNNY   79  73  83 SW9       30.05S                  
TULLAHOMA      PTSUNNY   79  72  78 SW8       30.04F                  
WINCHESTER     PTSUNNY   81  70  69 W9        30.05S                  
MCMINNVILLE    MOSUNNY   79  72  78 SW8G15    30.04S                  
COLUMBIA       MOSUNNY   82  75  78 SW13G21   29.98F                  
SHELBYVILLE    CLOUDY    81  72  74 S14       30.02F                  
$$

TNZ017-018-042-046-047-161600-
NORTHEAST TENNESSEE
  
CITY           SKY/WX    TMP DP  RH WIND       PRES   REMARKS
TRI CITIES     PTSUNNY   78  63  59 SW10      30.10S                  
ELIZABETHTON   CLOUDY    79  63  57 W13G18    30.10S                  
GREENEVILLE    MOSUNNY   77  63  61 SW7       30.10S                  
$$

TNZ012-013-036-069-073-074-161600-
CENTRAL EAST TENNESSEE
  
CITY           SKY/WX    TMP DP  RH WIND       PRES   REMARKS
KNOXVILLE      PTSUNNY   81  66  60 SW15      30.06F                  
OAK RIDGE      FAIR      81  66  60 VRB7      30.07F                  
DOWNTOWN KNOXV PTSUNNY   81  70  69 SW8       30.06F                  
GATLINBURG     MOSUNNY   84  64  51 SW9G18    30.05F                  
MORRISTOWN     SUNNY     81  66  61 SW13      30.06F                  
JACKSBORO      CLOUDY    79  68  69 CALM      30.08S                  
$$

TNZ083-085-099-161600-
SOUTHEAST TENNESSEE
  
CITY           SKY/WX    TMP DP  RH WIND       PRES   REMARKS
CHATTANOOGA    FAIR      83  70  64 VRB7      30.06F                  
$$

SKY/WX REPORTED AS FAIR MEANS FEW OR NO CLOUDS BELOW
12 THOUSAND FEET.